#timestamp,LO_Frequency,Hit,StdDev 
1538510415.5,286047011.9,P
1538510435.3,286047001.1,N
1538510455.2,286047001.0,N
1538510475.0,286047000.0,N
1538510475.9,286047000.0,N
1538510495.8,286047002.0,N
1538510515.6,286047002.4,N
1538510535.4,286047000.1,N
1538510555.3,286047002.8,N
1538510575.1,286046999.8,N
1538510595.8,286047001.6,N
1538510615.7,286047001.5,N
1538510635.5,286047000.7,N
1538510655.3,286046999.8,N
1538510675.2,286047000.0,N
1538510695.0,286047000.6,N
1538510695.9,286047000.6,N
1538510715.8,286046998.2,N
1538510735.6,286047000.5,N
1538510755.4,286047000.5,N
1538510775.3,286047001.6,N
1538510795.1,286047002.6,N
1538510815.8,286047002.5,N
1538510835.7,286046999.7,N
1538510855.5,286047002.3,N
1538510875.4,286047001.9,N
1538510895.2,286047001.3,N
1538510915.0,286047003.7,N
1538510915.9,286047003.7,N
1538510935.8,286047003.1,N
1538510955.6,286047003.2,N
1538510975.4,286047003.7,N
1538510995.3,286047003.6,N
1538511015.1,286047001.4,N
1538511035.9,286047002.7,N
1538511055.7,286047001.4,N
1538511075.5,286047004.2,N
1538511095.4,286047003.1,N
1538511115.2,286047003.4,N
1538511135.1,286047003.0,N
1538511136.0,286047003.0,N
1538511155.8,286047004.2,N
1538511175.6,286047003.1,N
1538511195.5,286047003.8,N
1538511215.3,286047004.0,N
1538511235.2,286047004.1,N
1538511255.9,286047003.1,N
1538511275.7,286047001.9,N
1538511295.6,286047002.0,N
1538511315.4,286047003.9,Y
1538511335.3,286047000.9,P
1538511355.1,286046998.3,N
1538511356.0,286046998.3,N
1538511375.8,286047001.0,N
1538511395.7,286046998.4,N
1538511415.5,286047000.6,N
1538511435.3,286047001.2,N
1538511455.2,286046998.3,N
1538511475.0,286046998.7,N
1538511475.9,286046998.7,N
1538511495.8,286046998.8,N
1538511515.6,286047001.1,N
1538511535.4,286046999.7,N
1538511555.3,286047002.2,N
1538511575.1,286047000.3,N
1538511595.8,286047002.8,N
1538511615.7,286047002.7,N
1538511635.5,286047001.8,N
1538511655.4,286047003.9,N
1538511675.2,286047001.8,N
1538511695.0,286047003.1,N
1538511695.9,286047003.1,N
1538511715.8,286047003.1,N
1538511735.6,286047004.0,N
1538511755.5,286047003.8,N
1538511775.3,286047003.0,N
1538511795.1,286047003.6,N
1538511815.9,286047003.6,N
1538511835.7,286047003.0,N
1538511855.5,286047006.0,Y
1538511875.4,286047003.0,P
1538511895.2,286047001.5,N
1538511915.1,286047003.3,P
1538511916.0,286047003.3,Y
1538511935.8,286047001.3,P
1538511955.6,286047005.8,P
1538511975.5,286047002.9,N
1538511995.3,286047003.2,N
1538512015.1,286047003.6,N
1538512035.9,286047004.1,N
1538512055.7,286047003.6,N
1538512075.6,286047004.3,Y
1538512095.4,286046999.8,P
1538512115.2,286047002.7,N
1538512135.1,286047002.3,N
1538512136.0,286047002.3,N
1538512155.8,286047001.8,N
1538512175.7,286047001.4,N
1538512195.5,286047001.6,N
1538512215.3,286047002.6,N
1538512235.2,286047002.3,N
1538512255.9,286047002.0,N
1538512275.7,286047001.4,N
1538512295.6,286047002.4,N
1538512315.4,286047000.6,N
1538512335.2,286046998.2,N
1538512355.1,286046998.3,N
1538512356.0,286046998.3,N
1538512375.8,286046998.9,N
1538512395.7,286046998.5,N
1538512415.5,286046999.4,N
1538512435.3,286046998.8,N
1538512455.2,286046998.9,N
1538512475.0,286046999.3,N
1538512475.9,286046999.3,N
1538512495.7,286047000.1,N
1538512515.6,286047002.4,N
1538512535.4,286047002.1,N
1538512555.3,286047001.6,N
1538512575.1,286047004.0,N
1538512576.0,286047004.0,N
1538512595.8,286047005.4,Y
1538512615.7,286047004.1,P
1538512635.5,286047006.0,P
1538512655.3,286047005.3,N
1538512675.2,286047006.0,Y
1538512695.0,286047000.1,P
1538512695.9,286047000.1,N
1538512715.8,286047000.6,N
1538512735.6,286047000.3,N
1538512755.4,286047000.9,N
1538512775.3,286047001.1,N
1538512795.1,286046998.5,N
1538512815.8,286046998.6,N
1538512835.7,286047000.6,N
1538512855.5,286047000.4,N
1538512875.4,286047001.0,N
1538512895.2,286047000.1,N
1538512915.0,286046998.2,N
1538512915.9,286046998.2,N
1538512935.8,286047000.5,N
1538512955.6,286047001.9,N
1538512975.4,286047001.6,N
1538512995.3,286047002.4,N
1538513015.1,286047000.5,N
1538513035.9,286047000.9,N
1538513055.7,286046999.7,N
1538513075.5,286047001.8,N
1538513095.4,286047001.5,N
1538513115.2,286047001.6,N
1538513135.0,286047003.8,N
1538513135.9,286047003.8,N
1538513155.8,286047001.7,N
1538513175.6,286047004.3,N
1538513195.5,286047004.4,N
1538513215.3,286047003.2,N
1538513235.1,286047003.1,N
1538513255.9,286047003.4,N
1538513275.7,286047005.6,Y
1538513295.5,286047004.1,P
1538513315.4,286047003.6,N
1538513335.2,286047003.5,N
1538513355.1,286047003.8,Y
1538513356.0,286047003.8,P
1538513375.8,286047000.8,N
1538513395.6,286047000.7,N
1538513415.5,286047001.0,N
1538513435.3,286046999.9,N
1538513455.1,286046999.8,N
1538513475.9,286047002.8,N
1538513495.7,286047002.8,N
1538513515.6,286047002.4,N
1538513535.4,286047001.3,N
1538513555.2,286047001.3,N
1538513575.1,286047002.2,N
1538513576.0,286047002.2,N
1538513595.8,286047004.0,Y
1538513615.6,286047000.0,P
1538513635.5,286047000.4,N
1538513655.3,286047000.2,N
1538513675.2,286047000.4,N
1538513695.9,286046998.2,Y
1538513715.7,286046998.5,P
1538513735.6,286047000.6,N
1538513755.4,286047001.2,N
1538513775.2,286047000.2,N
1538513795.1,286047000.3,N
1538513796.0,286047000.3,N
1538513815.8,286047000.3,N
1538513835.7,286047002.6,Y
1538513855.5,286047002.1,P
1538513875.3,286047001.4,N
1538513895.2,286047004.1,P
1538513915.0,286047001.7,N
1538513915.9,286047001.7,N
1538513935.8,286047003.9,Y
1538513955.6,286047002.5,P
1538513975.4,286047002.1,P
1538513995.3,286047002.0,P
